Regional Weather Roundup
Issued by NWS

Home | Current Version | Previous Version | Text Only | Print | Product List | Glossary Off
Versions: 1 2 3 4 5 6 7 8 9 10 11 12 13 14 15 16 17 18 19 20 21 22 23 24 25 26 27 28 29 30 31 32 33 34 35 36 37 38 39 40 41 42 43 44 45 46 47 48 49 50

000
ASUS45 KSLC 010210
RWRUT

UTAH REGIONAL WEATHER ROUNDUP
NATIONAL WEATHER SERVICE SALT LAKE CITY UT
700 PM MST SAT JAN 31 2015

UTZ001>011-023>025-010300-

NORTHERN UTAH

CITY           SKY/WX    TMP DP  RH WIND       PRES   REMARKS
BRIGHAM CITY   CLEAR     37  28  70 CALM      30.12R
HILL AFB       CLEAR     36  23  59 NW6       30.10R WCI  31
LOGAN          CLEAR     32  28  85 N7        30.12R WCI  26
OGDEN          CLEAR     37  28  70 W3        30.10R
PROVO AIRPORT  PTCLDY    39  28  65 NW12      30.09R WCI  32
SALT LAKE CITY CLEAR     39  30  70 NW7       30.10R WCI  34
VERNAL         CLEAR     35  32  88 SW5       29.98R WCI  31
WENDOVER       CLEAR     41  25  52 W5        30.12R
HEBER CITY     CLEAR     32  28  86 CALM      30.06R
WEST JORDAN    CLEAR     34  27  75 NW7       30.10R WCI  28

$$

UTZ012>022-026-027-010300-

SOUTHERN/CENTRAL UTAH

CITY           SKY/WX    TMP DP  RH WIND       PRES   REMARKS
BLANDING       CLEAR     33  33  99 CALM      30.03R
BRYCE CANYON   CLEAR     31  28  89 N10       30.06R WCI  22
CEDAR CITY     CLOUDY    38  33  82 NE14      30.05R WCI  30
DELTA          CLEAR     34  33  96 S7        30.10R WCI  28
HANKSVILLE     CLEAR     37  36  93 CALM      29.99R
MILFORD        CLOUDY    38  33  82 NW9       30.08R WCI  31
MOAB/CYNLANDS  MOCLDY    38  36  92 CALM      29.96R
PRICE          CLEAR     40  24  53 NW18G25   29.97R WCI  31
ST GEORGE      CLEAR     52  37  58 SE7       30.00R
KANAB          CLEAR     43  32  65 N5        30.02R

$$

REGIONAL REPORTS     COLORADO/ARIZONA

CITY           SKY/WX    TMP DP  RH WIND       PRES   REMARKS
CRAIG, CO      PTCLDY    27  23  85 CALM      29.94R
GRAND JUNCTION PTCLDY    38  36  92 N7        29.97R WCI  33
RIFLE          MOCLDY    38  28  67 W6        29.97R WCI  33
MONTROSE       CLOUDY    38  35  89 SE3       29.99R
CORTEZ         CLEAR     35  32  88 NW8       29.94R WCI  29
PAGE, AZ       NOT AVBL
GRAND CANYON   PTCLDY    38  33  82 E5        29.99R WCI  34
KINGMAN        CLEAR     50  41  71 NE7       29.96R
FLAGSTAFF      PTCLDY    36  33  89 NE3       29.98R

$$

REGIONAL REPORTS    NEVADA/IDAHO/WYOMING

CITY           SKY/WX    TMP DP  RH WIND       PRES   REMARKS
LAS VEGAS, NV  PTCLDY    60  39  45 CALM      29.92R
ELY            CLEAR     37  20  50 N13       30.10R WCI  29
ELKO           PTCLDY    36  26  67 W8        30.14S WCI  30
POCATELLO, ID  CLEAR     28  26  92 SW6       30.13S WCI  22
BURLEY         CLEAR     32  27  81 W3        30.13S
EVANSTON, WY   CLEAR     32  17  54 VRB3      30.05S
ROCK SPRINGS   CLEAR     33   4  29 NW21G31   29.94R WCI  21
KEMMERER       CLEAR     27  18  69 N3        30.03R

$$


USA.gov is the U.S. government's official web portal to all federal, state and local government web resources and services.